Simultaneous Nadir Overpasses (SNOs) Predictions

Prediction of SNOs between LANDSAT-8 and METOP-A Satellite Orbit:

Table of predicted SNOs for the next 14.0 days since TLE Epoch: 4/20/2014
Index Date (LANDSAT-8) Time (LANDSAT-8) Lat,Lon (LANDSAT-8) SZA (LANDSAT-8 ) Date (METOP-A) Time (METOP-A) Lat,Lon (METOP-A) SZA (METOP-A ) Distance(km) Time Diff (sec)
1 04/21/2014 21:38:07 81.04,-106.59 70.93 04/21/2014 21:37:43 81.04,-106.53 70.94 1.24 24
2 04/21/2014 22:27:33 -81.06, 61.42 109.02 04/21/2014 22:28:23 -81.06, 61.24 109.03 3.24 50
3 04/24/2014 17:12:24 81.05, -40.05 70.04 04/24/2014 17:12:06 81.05, -39.92 70.04 2.22 18
4 04/24/2014 18:01:50 -81.07, 127.99 109.92 04/24/2014 18:02:46 -81.07, 127.84 109.92 2.68 56
5 04/27/2014 12:46:45 81.05, 26.33 69.14 04/27/2014 12:46:31 81.04, 26.23 69.12 1.88 14
6
